Weather History for KMCK - April, 2012

Change the Weather History Date:

Sunday, April 15, 2012

  Actual Average Record
Temperature  
Mean Temperature 48 °F 49 °F  
Max Temperature 55 °F 64 °F 97 °F (2002)
Min Temperature 41 °F 34 °F 19 °F (1983)
Degree Days  
Heating Degree Days 16    
Moisture  
Dew Point 43 °F    
Average Humidity 80    
Maximum Humidity 93    
Minimum Humidity 59    
Precipitation  
Precipitation 0.02 in 0.08 in 0.64 in (2003)
Month to date precipitation 1.63 0.95  
Year to date precipitation 2.52 3.44  
Sea Level Pressure  
Sea Level Pressure 29.44 in    
Wind  
Wind Speed 19 mph (NW)    
Max Wind Speed 43 mph    
Max Gust Speed 56 mph    
Visibility 10 miles    
Events Rain , Thunderstorm    
T = Trace of Precipitation, MM = Missing Value Source: NWS Daily Summary

Daily Weather History Graph

Daily Weather History Graph

Search for Another Location

Airport or City:

Trip Planner

Search our weather history database for the weather conditions in past years. The results will help you decide how hot, cold, wet, or windy it might be!

Date:

Astronomy

Apr. 15, 2012 Rise Set
Actual Time 7:03 AM CDT 8:21 PM CDT
Civil Twilight 6:35 AM CDT 8:49 PM CDT
Nautical Twilight 6:01 AM CDT 9:23 PM CDT
Astronomical Twilight 5:26 AM CDT 9:59 PM CDT
Moon 4:02 AM CDT (4/15) 3:18 PM CDT (4/15)
Length of Visible Light 14h 14m
Length of Day
13h 18m
Waning Crescent, 27% of the Moon is Illuminated
Apr 15
Waning Crescent
Apr 21
New
Apr 29
First Quarter
May 5
Full
May 12
Last Quarter

Hourly Weather History & Observations

Time (CDT) Temp. Windchill Dew Point Humidity Pressure Visibility Wind Dir Wind Speed Gust Speed Precip Events Conditions
12:53 AM 55.0 °F - 46.9 °F 74% 29.34 in 10.0 mi NW 18.4 mph - N/A   Scattered Clouds
1:53 AM 52.0 °F - 46.9 °F 83% 29.33 in 10.0 mi NNW 10.4 mph - N/A   Clear
2:53 AM 50.0 °F - 46.9 °F 89% 29.31 in 10.0 mi East 8.1 mph - N/A   Clear
3:53 AM 48.0 °F - 46.0 °F 93% 29.34 in 10.0 mi WNW 13.8 mph - N/A   Partly Cloudy
4:43 AM 48.2 °F - 46.4 °F 93% 29.33 in 10.0 mi NW 13.8 mph - N/A   Mostly Cloudy
4:53 AM 48.9 °F - 46.9 °F 93% 29.30 in 10.0 mi NNW 13.8 mph - N/A   Scattered Clouds
5:33 AM 48.2 °F - 46.4 °F 93% 29.33 in 10.0 mi NNW 11.5 mph - N/A Thunderstorm Thunderstorm
5:50 AM 48.2 °F - 46.4 °F 93% 29.32 in 10.0 mi NW 12.7 mph - N/A   Mostly Cloudy
5:53 AM 48.9 °F - 46.9 °F 93% 29.28 in 10.0 mi NW 11.5 mph - N/A   Overcast
6:53 AM 48.9 °F - 46.9 °F 93% 29.26 in 10.0 mi NNW 10.4 mph - N/A   Overcast
7:02 AM 48.2 °F - 46.4 °F 93% 29.31 in 10.0 mi NW 11.5 mph - N/A   Overcast
7:53 AM 48.9 °F - 45.0 °F 86% 29.26 in 7.0 mi NNW 15.0 mph - N/A   Overcast
8:14 AM 48.2 °F - 44.6 °F 87% 29.30 in 10.0 mi NNW 13.8 mph 21.9 mph N/A   Overcast
8:28 AM 48.2 °F - 44.6 °F 87% 29.30 in 10.0 mi NW 15.0 mph - N/A   Overcast
8:53 AM 50.0 °F - 46.0 °F 86% 29.28 in 10.0 mi WNW 12.7 mph - N/A   Mostly Cloudy
9:18 AM 50.0 °F - 44.6 °F 82% 29.30 in 10.0 mi WNW 12.7 mph 21.9 mph N/A   Overcast
9:53 AM 52.0 °F - 44.1 °F 74% 29.26 in 10.0 mi NW 23.0 mph 29.9 mph N/A   Overcast
10:53 AM 48.9 °F - 45.0 °F 86% 29.29 in 9.0 mi WNW 21.9 mph 29.9 mph 0.02 in Rain Light Rain
11:53 AM 48.0 °F - 44.1 °F 86% 29.33 in 10.0 mi WNW 28.8 mph 39.1 mph 0.00 in   Overcast
12:53 PM 48.0 °F - 39.9 °F 74% 29.36 in 10.0 mi NW 41.4 mph 56.4 mph 0.00 in   Overcast
1:12 PM 48.2 °F - 39.2 °F 71% 29.39 in 10.0 mi NNW 33.4 mph 51.8 mph N/A   Overcast
1:34 PM 46.4 °F 35.6 °F 39.2 °F 76% 29.42 in 9.0 mi NNW 42.6 mph 56.4 mph 0.00 in Rain Light Rain
1:53 PM 48.0 °F - 39.0 °F 71% 29.43 in 10.0 mi NNW 38.0 mph 52.9 mph 0.00 in   Overcast
2:53 PM 46.9 °F - 39.0 °F 74% 29.50 in 10.0 mi NW 36.8 mph 43.7 mph 0.00 in   Overcast
3:07 PM 48.2 °F - 39.2 °F 71% 29.51 in 10.0 mi NW 28.8 mph 46.0 mph N/A   Overcast
3:22 PM 51.8 °F - 39.2 °F 62% 29.51 in 10.0 mi NNW 38.0 mph 44.9 mph N/A   Overcast
3:53 PM 51.1 °F - 39.9 °F 66% 29.52 in 10.0 mi NW 38.0 mph 50.6 mph 0.00 in Rain Light Rain
4:53 PM 51.1 °F - 43.0 °F 74% 29.56 in 8.0 mi NW 33.4 mph 44.9 mph 0.00 in Rain Light Rain
5:53 PM 51.1 °F - 39.0 °F 63% 29.62 in 10.0 mi NNW 34.5 mph 43.7 mph 0.00 in   Clear
6:53 PM 51.1 °F - 37.0 °F 59% 29.68 in 10.0 mi NW 38.0 mph 49.5 mph N/A   Scattered Clouds
7:53 PM 50.0 °F - 37.0 °F 61% 29.73 in 10.0 mi NW 27.6 mph 40.3 mph N/A   Mostly Cloudy
8:53 PM 48.0 °F - 37.9 °F 68% 29.78 in 10.0 mi NNW 27.6 mph 35.7 mph N/A   Partly Cloudy
9:53 PM 45.0 °F 36.4 °F 37.0 °F 74% 29.85 in 10.0 mi NW 23.0 mph 27.6 mph N/A   Clear
10:53 PM 44.6 °F 37.4 °F 37.4 °F 76% 29.90 in 10.0 mi NW 16.1 mph - N/A   Scattered Clouds
11:53 PM 43.0 °F 36.0 °F 37.0 °F 80% 29.95 in 10.0 mi WNW 13.8 mph - N/A   Clear